Dupage Airport Chicago,West Chicago US
ICAO: KDPA
IATA: DPA
Category: Medium
Scheduled Services: No

Elevation: 759 ft
TransAlt. 18000 ft.

Airport Communications:
CHICAGO APP/DEP:133.5
ASOS:124.8
ATIS:124.8
CLNC DEL:119.75
GND:121.8
KANKAKEE RDO:122.3
TWR:120.9
UNICOM:122.95

KDPA Zoom In..

Runways:

(A) RW 02L length 7571 ft width 100 ft
ILS 111.70 / hdg 15

(B) RW 02R length 6443 ft width 100 ft
---- / hdg 15

(C) RW 10 length 4750 ft width 75 ft
ILS 109.50 / hdg 97

(D) RW 15 length 3399 ft width 100 ft
---- / hdg 149

(E) RW 20L length 6443 ft width 100 ft
---- / hdg 195

(F) RW 20R length 7571 ft width 100 ft
---- / hdg 195

(G) RW 28 length 4750 ft width 75 ft
---- / hdg 277

(H) RW 33 length 3399 ft width 100 ft
---- / hdg 329

Location; KDPA
Day. 24 / Time. 07.52 Zulu
* Altimeter: 30.16
* Temperature: 15° c. 59°f.
* Wind from: 000° Speed 00 kn.
Dewpoint: 11° c.
Visibility: 8 Statute Miles.
Clouds: Clear (automated report).

KDPA 240752Z 00000KT 8SM CLR 15/11 A3016 RMK AO2 SLP211 T01500111


Wind - Calm.

 
 
jpsmedia.com for Web Design SOUNDCLOUD worldairports.se 2018   terms of use